Regional Weather Roundup
Issued by NWS

Home | Current Version | Previous Version | Text Only | Print | Product List | Glossary On
Versions: 1 2 3 4 5 6 7 8 9 10 11 12 13 14 15 16 17 18 19 20 21 22 23 24 25 26 27 28 29 30 31 32 33 34 35 36 37 38 39 40 41 42 43 44 45 46 47 48 49 50
000
ASUS43 KMPX 262001
RWRMN
WEATHER ROUNDUP FOR MINNESOTA
NATIONAL WEATHER SERVICE TWIN CITIES/CHANHASSEN MN
300 PM CDT WED APR 26 2017


NOTE: "FAIR" INDICATES FEW OR NO CLOUDS BELOW 12,000 FEET WITH NO
SIGNIFICANT WEATHER AND/OR OBSTRUCTIONS TO VISIBILITY. N/A MEANS
CURRENT SKY AND/OR WEATHER CONDITIONS ARE NOT AVAILABLE.

MNZ060>063-068>070-262100-
   Twin Cities Metro

CITY           SKY/WX    TMP DP  RH WIND       PRES   REMARKS
TWIN CITIES    CLOUDY    40  33  76 NW10G21   29.55R
ST PAUL        CLOUDY    40  35  83 NW14      29.55R
CRYSTAL        CLOUDY    39  32  76 N14       29.54R
BLAINE         CLOUDY    39  39 100 N9        29.54S
LAKEVILLE      CLOUDY    37  36  93 NW12      29.54R
EDEN PRAIRIE   CLOUDY    41  33  73 NW10      29.54S
SOUTH ST PAUL  CLOUDY    40  37  89 NW9       29.54R
LAKE ELMO      CLOUDY    39  36  87 NW10      29.53S
$$
MNZ001>005-007-008-013>017-022>024-027-028-262100-
   Northwest Minnesota

CITY           SKY/WX    TMP DP  RH WIND       PRES   REMARKS
BEMIDJI        LGT SNOW  28  24  87 NE13      29.66S WCI  17
HALLOCK        CLOUDY    34  25  69 NE13      29.80F WCI  25
ROSEAU         CLOUDY    30  25  80 NE18      29.78F WCI  18
WARROAD        CLOUDY    30  25  80 NE14G23   29.79F WCI  20
THIEF RVR FALL FLURRIES  29  25  85 N18       29.74F WCI  16
CROOKSTON      LGT SNOW  28  27  93 N16G22    29.77S WCI  17
FOSSTON        CLOUDY    27  25  93 N16       29.69F WCI  14
DETROIT LAKES  PTSUNNY   30  28  93 N7        29.68R WCI  23
MOORHEAD       RAIN      28  27  93 N8        29.74R WCI  20
PARK RAPIDS    LGT SNOW  29  22  75 N9        29.64R WCI  20
MAHNOMEN       LGT SNOW  27  24  89 N5        29.69R WCI  22
$$
MNZ006-009>011-018-025>026-262100-
   North Central Minnesota

CITY           SKY/WX    TMP DP  RH WIND       PRES   REMARKS
BAUDETTE       LGT SNOW  29  23  78 NE14G23   29.73F WCI  18
FLAG ISLAND    CLOUDY    30  21  69 NE23G33   29.78F WCI  17
INTL FALLS     LGT SNOW  27  21  78 NE16G28   29.70F VSB 3/4 WCI  15
WASKISH        LGT SNOW  28  25  86 N14       29.70S WCI  17
BIG FORK       LGT SNOW  30  25  80 N8G18     29.64F WCI  23
LONGVILLE      CLOUDY    28  27  93 N3        29.64R
GRAND RAPIDS   CLOUDY    29  25  85 N8        29.64R WCI  21
CRANE LAKE     LGT SNOW  25  21  86 N5G17     29.69S WCI  19
ORR            LGT SNOW  27  21  80 NE3       29.62F
COOK           CLOUDY    28  23  80 N7G16     29.64S HAZE    WCI  21
WALKER         LGT SNOW  28  24  85 N10       29.64S WCI  18
$$
MNZ012-019>021-037-262100-
   Northeast Minnesota

CITY           SKY/WX    TMP DP  RH WIND       PRES   REMARKS
DULUTH         LGT SNOW  34  31  88 NE12      29.56R VSB 3/4 WCI  25
ELY            LGT SNOW  27  25  93 NE10G16   29.61R WCI  17
HIBBING        CLOUDY    29  25  85 N14       29.60S WCI  18
EVELETH        MIX PCPN  32  28  83 NE9       29.61R WCI  24
DULUTH HARBOR  LGT RAIN  36  34  93 NE15      29.60R
TWO HARBORS    FLURRIES  37  32  81 NE3       29.56R
SILVER BAY     LGT SNOW  34  30  86 N3        29.56R
GRAND MARAIS     N/A     32  27  81 N10G28    29.56F WCI  24
G MARAIS ARPRT LGT SNOW  25  19  80 N5        29.53S WCI  19
$$
MNZ029>031-032-039>041-046>048-054>057-064-262100-
   West Central Minnesota

CITY           SKY/WX    TMP DP  RH WIND       PRES   REMARKS
FERGUS FALLS   CLOUDY    30  27  86 N9G17     29.69R WCI  22
WHEATON        CLOUDY    30  27  86 NW17G24   29.72S WCI  18
MORRIS         CLOUDY    34  28  80 N15       29.65S WCI  24
ALEXANDRIA     CLOUDY    31  28  89 N13       29.65R WCI  21
ELBOW LAKE     CLOUDY    32  27  80 N9        29.68R WCI  24
WADENA         MIX PCPN  28  27  93 N6        29.65R WCI  22
GLENWOOD       CLOUDY    30  28  93 N8        29.63F WCI  23
APPLETON       CLOUDY    34  30  86 NW16      29.66S WCI  23
BENSON         CLOUDY    39  27  60 N14       29.66S
ORTONVILLE     CLOUDY    30  27  86 N13G21    29.69R FOG     WCI  20
MADISON        CLOUDY    36  34  93 NW20      29.68S FOG
WILLMAR        CLOUDY    37  34  87 N12       29.64R
$$
MNZ033>034-036-042>043-049>051-058-059-262100-
   Central Minnesota

CITY           SKY/WX    TMP DP  RH WIND       PRES   REMARKS
ST CLOUD       CLOUDY    35  32  88 N10       29.59R WCI  27
SAUK CENTRE    MIX PCPN  31  29  93 NW9       29.63S WCI  23
PAYNESVILLE    CLOUDY    33  33 100 N10       29.62S WCI  25
AITKIN         MIX PCPN  34  28  80 N8        29.60R WCI  27
PINE RIVER     CLOUDY    28  27  93 N6        29.68R WCI  22
BRAINERD       CLOUDY    31  28  89 N12       29.63R WCI  22
STAPLES        CLOUDY    28  27  93 CALM      29.65R FOG
LONG PRAIRIE   CLOUDY    30  28  93 CALM      29.63S FOG
LITTLE FALLS   CLOUDY    32  30  93 N6        29.62S WCI  26
LITCHFIELD     CLOUDY    36  32  87 N12G17    29.61R
BUFFALO        LGT RAIN  37  33  87 NW12G18   29.59R
MAPLE LAKE     CLOUDY    37  34  87 NW13      29.59R
HUTCHINSON     CLOUDY    37  33  85 NW13      29.61R
$$
MNZ037-044-045-052-053-262100-
   East Central Minnesota

CITY           SKY/WX    TMP DP  RH WIND       PRES   REMARKS
PRINCETON      CLOUDY    37  36  93 NW9       29.58R
MORA           LGT RAIN  36  32  87 N6        29.57F
CAMBRIDGE      LGT RAIN  37  36  93 N9        29.54R
RUSH CITY      CLOUDY    38  33  84 N10G18    29.56R
MOOSE LAKE     LGT SNOW  32  32 100 N9        29.54F WCI  24
HINCKLEY       CLOUDY    36  34  93 N15G23    29.55F
CLOQUET        LGT SNOW  34  30  86 N9G16     29.57R WCI  26
MCGREGOR       CLOUDY    32  30  93 N6        29.60R WCI  26
$$
MNZ071>073-080-081-089-090-097-098-262100-
   Southwest Minnesota

CITY           SKY/WX    TMP DP  RH WIND       PRES   REMARKS
MONTEVIDEO     CLOUDY    36  34  93 N13G21    29.65R
GRANITE FALLS  CLOUDY    38  33  84 W17       29.67R
CANBY          CLOUDY    33  32  94 NW15G23   29.70R WCI  23
MARSHALL       CLOUDY    33  31  92 NW18      29.66  WCI  22
REDWOOD FALLS  LGT RAIN  38  33  82 N12G18    29.62R
OLIVIA         CLOUDY    37  34  87 N9        29.61S FOG
PIPESTONE      CLOUDY    36  27  69 N18G24    29.65F
WINDOM         MOSUNNY   39  36  87 NW18      29.59F
WORTHINGTON    CLOUDY    35  32  88 NW18      29.62  WCI  24
JACKSON        CLOUDY    37  34  87 NW18G25   29.59F
TRACY          CLOUDY    35  34  96 NW21      29.65S FOG     WCI  23
SLAYTON        CLOUDY    33  31  94 NW16G22   29.66R WCI  22
$$
MNZ065>067-074>077-082>085-091>093-262100-
   South Central Minnesota

CITY           SKY/WX    TMP DP  RH WIND       PRES   REMARKS
MANKATO        CLOUDY    38  34  85 NW16G23   29.57R
NEW ULM        CLOUDY    37  34  87 NW16      29.58F
ST JAMES       CLOUDY    39  36  87 NW15G22   29.59F
FAIRMONT       CLOUDY    39  35  86 NW22      29.58
GLENCOE        CLOUDY    39  35  87 NW12G20   29.58R
FARIBAULT      CLOUDY    39  36  87 NW8       29.55R
OWATONNA       CLOUDY    39  36  87 W15       29.54S
WASECA         CLOUDY    39  34  81 NW14G20   29.56S
ALBERT LEA     CLOUDY    39  37  93 NW14G20   29.53S
$$
MNZ078>079-086>088-094>096-262100-
   Southeast Minnesota

CITY           SKY/WX    TMP DP  RH WIND       PRES   REMARKS
ROCHESTER      CLOUDY    40  38  93 NW18      29.50R
RED WING       CLOUDY    43  36  75 NW9       29.51R
STANTON        CLOUDY    40  36  83 NW10      29.53R
DODGE CENTER   CLOUDY    37  37 100 NW12      29.51S
WINONA           N/A     45  37  76 NW10G16   29.49R
AUSTIN         CLOUDY    41  36  81 NW16G25   29.52S
PRESTON        CLOUDY    41  37  85 NW17      29.51R
$$
ABBREVIATIONS USED IN REMARKS
   TC - TEMPERATURES IN CELSIUS
  WCI - WIND CHILL INDEX
   HX - HEAT INDEX
  VSB - VISIBILITY
$$




USA.gov is the U.S. government's official web portal to all federal, state and local government web resources and services.